Regional Weather Roundup
Issued by NWS Huntsville, AL

Home | Current Version | Previous Version | Text Only | Print | Product List | Glossary On
Versions: 1 2 3 4 5 6 7 8 9 10 11 12 13 14 15 16 17 18 19 20 21 22 23 24 25 26 27 28 29 30 31 32 33 34 35 36 37 38 39 40 41 42 43 44 45 46 47 48 49 50
000
ASUS44 KHUN 171024
RWRHUN

WEATHER ROUNDUP FOR THE TENNESSEE VALLEY
NATIONAL WEATHER SERVICE HUNTSVILLE AL
500 AM CDT THU APR 17 2014

ALZ001>004-171100-
NORTHWEST ALABAMA

CITY           SKY/WX    TMP DP  RH WIND       PRES   REMARKS
SHOALS AIRPORT CLEAR     45  34  65 SE7       30.28S
SHOALS TVA RES   N/A     46 N/A N/A MISG        N/A
$$

ALZ005>007-016-171100-
NORTH CENTRAL ALABAMA

CITY           SKY/WX    TMP DP  RH WIND       PRES   REMARKS
DECATUR AP     CLEAR     47  32  56 E8        30.31R
HUNTSVILLE AP  CLEAR     44  33  65 E7        30.30R
HUN NWS/UAH      N/A     48  29  48 SE6         N/A
MERIDIANVILLE  CLEAR     46  27  46 SE5       30.31S
VINEMONT AP    FAIR      44  32  62 E5        30.32R
$$

ALZ008>010-171100-
NORTHEAST ALABAMA

CITY           SKY/WX    TMP DP  RH WIND       PRES   REMARKS
ALBERTVILLE    PTCLDY    43  36  75 SE6       30.31R
CROSSVILLE       N/A     43 N/A N/A CALM        N/A
FORT PAYNE     CLEAR     45  27  49 E6        30.33R
SCOTTSBORO AP  CLEAR     43  32  65 E3        30.34S
SCOTTSBORO HCN   N/A     39 N/A N/A MISG        N/A
VALLEY HEAD      N/A     46 N/A N/A MISG        N/A
$$

TNZ076-096-097-171100-
SOUTHEASTERN MIDDLE TENNESSEE

CITY           SKY/WX    TMP DP  RH WIND       PRES   REMARKS
FAYETTEVILLE   FAIR      41  29  62 SE9       30.30R
TULLAHOMA      CLEAR     46  27  46 SE9       30.31S
WINCHESTER     CLEAR     46  28  49 SE14      30.32R
$$

...SURROUNDING SITES...

CITY           SKY/WX    TMP DP  RH WIND       PRES   REMARKS
ATLANTA        PTCLDY    41  33  73 E9        30.35R
ANNISTON       PTCLDY    45  34  65 NE3       30.33R
BIRMINGHAM     PTCLDY    49  34  56 E5        30.31R
CHATTANOOGA    PTCLDY    42  32  67 CALM      30.35R
CORINTH        FAIR      37  36  93 CALM      30.25S
DALTON         CLEAR     36  34  93 CALM      30.35S
GADSDEN        NOT AVBL
GOLDEN TRNGL   CLEAR     48  36  61 SE14G20   30.27R
HALEYVILLE     FAIR      43  34  70 E6        30.29S
JACKSON TN     CLEAR     37  33  85 CALM      30.23R
LEWISBURG      FAIR      47  31  54 SE7       30.29R
MEMPHIS        CLEAR     46  33  60 SE3       30.20S
MURFREESBORO   FAIR      48  31  52 S8        30.30R
NASHVILLE      PTCLDY    47  32  56 S7        30.29R
OXFORD MS      FAIR      43  36  75 SE3       30.24R
ROME           CLEAR     42  32  67 E3        30.35R
TUPELO         CLEAR     45  37  73 S5        30.24R
TUSCALOOSA     CLEAR     48  37  65 NE6       30.27S
$$

...GULF COAST WEATHER...

CITY           SKY/WX    TMP DP  RH WIND       PRES   REMARKS
GULFPORT       MOCLDY    55  48  77 NE7       30.13F
PASCAGOULA     PTCLDY    50  48  93 NE5       30.15S
MOBILE         CLOUDY    50  47  89 NE8       30.17S
GULF SHORES    CLOUDY    53  50  90 NE9       30.15S
PENSACOLA      CLOUDY    58  53  84 E15       30.16R
DESTIN         CLOUDY    57  49  74 E12       30.19R
PANAMA CITY    MOCLDY    53  48  84 NE9       30.20R
APPALACHICOLA  PTCLDY    54  47  77 NE12      30.18S
$$




USA.gov is the U.S. government's official web portal to all federal, state and local government web resources and services.